Theta_e
316 315 314 314 314 313 312 312 312 310 309 315 314 311 318 313 308 316 319 317 314 312 304 310 306 302 302 303 300 300 301 299 301 302 302 302 301 302 300 299 299 299 299 298 299 298 296 296 295 296 297 297 300 300 300 298 298 300 300 300 305 312 302 300 299 303 302 303 303 303 302 301 302 302 302 302 303 305 305 304 309 306 308 305 305 302 309
316 315 314 314 313 312 312 312 312 311 309 308 309 314 311 312 313 316 319 315 315 309 299 299 300 304 302 301 300 300 301 301 302 301 302 300 301 299 300 301 301 300 301 301 299 300 295 298 298 297 298 299 300 301 301 303 306 303 302 302 305 300 302 300 296 295 297 299 302 302 304 304 301 300 301 301 305 304 308 312 313 308 308 308 304 298 308
316 315 314 313 313 312 312 311 311 311 309 309 311 316 312 314 311 313 318 316 311 304 304 304 300 300 299 299 298 300 301 300 300 301 301 303 302 301 301 300 302 302 301 301 302 302 299 298 299 296 299 300 304 302 302 305 308 314 312 312 310 303 299 301 294 290 289 289 290 293 296 298 300 300 300 303 307 310 308 303 308 299 309 308 305 306 312
316 315 314 313 313 312 312 312 311 311 309 307 313 316 311 309 305 307 310 312 308 305 304 302 302 301 301 299 297 298 298 301 300 301 301 302 303 302 302 303 303 303 302 301 300 300 302 300 299 300 300 301 303 301 302 302 307 317 316 311 310 304 303 302 301 299 295 296 298 300 301 300 297 299 303 304 304 307 308 313 306 299 308 307 310 312 311
316 315 314 313 313 312 312 311 311 310 308 308 313 314 312 310 308 306 304 310 307 303 305 304 302 300 303 300 297 297 297 298 300 301 302 303 302 302 300 299 302 301 301 299 299 300 299 302 301 298 299 300 301 303 302 303 309 319 310 310 306 306 300 300 301 299 299 299 298 299 299 297 300 301 303 306 306 305 308 304 302 315 307 302 311 315 311
316 316 315 314 313 313 313 311 311 309 308 307 311 316 311 307 306 310 311 299 301 304 302 307 303 302 302 300 298 297 297 298 297 300 300 301 304 301 301 300 298 298 300 301 298 299 299 300 297 300 299 300 302 302 303 302 305 308 304 306 306 302 298 300 300 298 298 299 298 299 299 298 299 300 301 303 307 307 305 306 307 313 304 300 312 316 314
316 316 315 314 313 313 313 312 310 309 307 307 315 315 310 311 310 312 313 306 304 304 307 307 303 305 305 304 300 298 297 297 297 296 300 302 302 302 297 296 297 299 300 302 299 299 297 296 300 299 299 298 300 299 301 303 304 303 304 304 305 304 299 302 301 299 299 299 299 299 298 296 299 300 302 304 306 309 308 308 308 310 311 309 314 317 316
316 316 315 315 314 314 314 312 311 309 307 312 319 313 310 310 310 311 311 312 310 309 303 301 301 300 302 301 299 299 298 297 299 300 300 299 300 303 298 296 298 299 300 305 300 298 300 299 298 299 299 300 301 298 299 298 303 303 301 302 304 302 298 304 300 298 299 299 301 301 299 299 299 301 304 305 305 308 310 309 310 311 313 313 315 315 314
316 316 315 314 314 314 314 313 311 310 309 320 316 315 316 314 314 314 313 306 306 310 303 303 304 302 303 301 301 300 298 298 300 299 300 300 299 301 298 299 299 299 300 300 298 300 302 302 301 301 300 297 300 298 299 300 299 302 302 303 304 304 298 300 302 297 297 299 299 300 298 300 300 300 304 304 303 304 307 309 311 310 310 313 314 312 313
317 316 315 315 314 314 314 313 312 309 309 317 315 313 317 316 315 315 313 306 305 303 303 299 301 299 300 301 303 301 300 301 300 299 300 300 302 301 302 302 300 300 301 299 300 302 302 302 303 303 303 302 302 302 302 301 300 300 301 302 302 302 301 299 300 297 295 298 299 300 300 298 296 298 302 304 305 305 307 310 314 313 314 312 310 312 320
317 316 315 314 314 315 314 314 313 310 311 311 315 314 316 315 315 316 310 306 302 304 302 301 303 301 300 301 301 300 301 300 302 299 298 301 300 301 302 301 300 298 299 301 304 303 304 304 302 303 302 302 301 300 301 301 302 301 302 301 301 304 304 298 301 294 295 297 298 300 297 290 291 303 306 304 304 304 305 308 312 313 315 314 314 315 320
317 316 315 314 314 314 314 314 313 310 310 307 309 315 316 317 315 312 311 303 300 303 302 301 300 301 301 300 301 301 300 300 300 309 301 301 301 301 302 303 306 299 304 305 307 306 304 305 306 304 303 302 302 303 304 303 301 303 301 301 302 302 302 299 299 295 293 297 299 295 289 291 301 304 307 309 307 308 311 312 310 312 314 315 315 317 319
318 316 315 314 314 314 314 314 313 311 310 309 311 316 316 316 316 313 311 308 302 305 302 300 302 300 301 303 302 302 303 302 304 304 303 303 301 302 302 303 303 305 307 305 307 306 303 301 302 301 300 301 301 303 303 302 302 303 303 302 303 300 301 301 297 297 296 295 295 286 291 300 302 303 305 309 312 309 310 310 312 313 314 317 317 319 320
318 317 315 315 314 314 314 314 313 313 310 309 311 315 315 316 316 315 315 309 302 304 301 302 303 303 304 303 305 303 304 304 305 307 303 305 302 303 304 306 306 308 307 308 306 305 301 301 297 298 296 300 299 298 299 303 302 302 301 302 303 305 303 300 295 297 291 293 294 294 301 299 300 300 302 303 302 302 305 303 309 313 315 319 318 319 319
318 317 316 314 314 314 314 313 313 313 311 308 311 312 316 319 317 316 311 313 304 304 304 301 303 304 304 303 304 304 304 305 304 303 304 305 303 306 307 309 310 308 306 307 305 304 300 300 294 292 294 294 290 293 300 298 303 302 302 301 302 304 299 300 296 294 296 293 291 292 292 290 296 301 306 308 307 306 306 307 308 313 314 320 320 318 318
318 317 315 314 314 314 314 314 313 313 311 308 312 310 316 319 318 317 315 313 310 301 304 308 308 306 305 304 304 305 303 304 303 304 305 308 307 309 310 311 310 309 307 305 304 303 300 297 293 294 291 294 296 294 293 299 297 302 305 304 302 302 304 303 297 294 295 293 290 290 288 293 299 302 305 307 308 307 306 306 302 310 314 320 321 319 319
318 317 315 314 314 314 314 314 313 313 312 309 309 310 318 319 319 317 316 313 314 303 305 309 310 307 304 303 303 305 306 303 305 301 300 303 306 305 309 312 312 310 308 308 305 302 299 296 295 296 296 297 295 295 297 297 296 297 304 305 301 301 300 300 295 295 295 293 290 289 294 294 301 303 306 307 309 306 306 296 296 305 309 317 321 320 319
318 317 316 314 314 313 314 313 313 313 312 310 309 311 317 318 319 316 315 314 311 305 308 309 305 305 304 307 306 302 305 305 306 307 306 304 305 307 307 309 308 308 309 306 305 300 298 297 295 294 294 298 299 298 292 297 295 295 296 297 296 298 298 297 293 294 295 293 292 294 295 301 304 304 307 308 309 306 300 293 301 306 307 312 320 321 321
317 317 316 314 313 313 313 313 313 312 313 309 311 311 314 316 319 317 316 312 312 305 308 308 310 307 307 308 307 307 306 307 311 305 304 304 306 306 307 306 306 304 308 304 303 299 297 296 298 297 296 297 299 296 297 295 295 298 298 296 296 297 296 296 296 293 292 293 290 291 296 299 304 307 308 309 307 298 297 304 308 308 308 311 317 321 322
317 316 315 313 313 313 313 313 312 312 313 310 308 311 313 314 317 318 314 311 309 309 308 311 311 308 309 308 307 307 307 307 308 307 306 301 308 305 306 303 308 308 306 307 299 299 298 296 298 298 297 297 298 300 297 297 299 297 298 298 296 297 294 293 293 294 293 294 291 289 286 300 306 306 308 308 303 302 305 306 308 309 310 312 317 321 322
317 316 314 312 312 312 312 313 312 312 312 312 308 311 316 316 316 318 317 315 315 310 308 311 312 314 312 312 311 308 310 305 309 306 307 307 308 305 296 298 303 306 301 303 297 299 300 297 299 299 300 299 299 298 295 297 297 300 300 299 298 300 296 296 296 299 293 291 289 288 300 303 307 306 300 304 305 307 308 307 307 310 310 314 318 320 322
316 315 313 312 312 312 312 312 312 312 312 312 309 310 316 317 315 317 316 316 316 312 310 312 314 318 319 318 318 313 310 310 312 315 311 308 309 306 305 309 306 307 307 307 303 301 302 301 301 299 298 298 300 297 296 294 293 299 302 300 292 302 300 301 295 300 298 296 298 304 306 307 308 308 307 308 309 310 309 309 309 309 311 315 316 318 319
316 314 312 312 312 312 312 312 312 312 312 312 311 311 313 312 314 317 316 320 318 316 318 315 315 314 318 322 322 319 314 314 313 315 318 313 308 310 309 309 309 311 309 308 305 304 305 303 299 302 300 301 299 297 297 297 296 299 297 301 301 305 305 304 302 300 304 305 305 307 308 307 308 310 310 308 309 310 310 311 311 313 313 314 316 315 316
316 315 313 312 312 311 312 312 312 312 312 312 311 309 311 311 312 315 318 316 316 313 314 316 312 308 310 311 317 316 315 315 318 315 317 322 309 307 309 311 313 311 312 312 308 308 305 305 302 303 298 301 301 298 294 294 298 300 299 299 302 304 305 303 300 303 298 294 304 306 305 307 308 309 311 311 310 310 310 311 312 314 315 315 317 316 315
316 316 314 312 312 311 311 312 312 312 312 312 313 311 310 313 314 312 314 311 316 314 304 308 310 313 316 318 318 314 314 315 317 317 316 321 321 311 309 313 314 311 311 314 310 311 309 303 302 301 298 302 302 296 299 298 296 301 297 299 300 301 307 302 301 302 298 300 303 307 308 308 309 309 308 308 309 311 312 312 313 314 316 317 315 315 315
316 316 314 312 311 311 311 312 312 313 313 312 312 309 312 314 312 311 316 316 313 314 307 305 309 316 317 315 314 315 316 318 318 319 318 316 316 320 316 315 314 316 313 311 314 310 307 305 304 302 300 300 305 300 299 300 301 303 301 300 303 304 306 298 301 300 302 304 306 307 308 307 308 309 310 310 310 310 312 312 312 313 312 314 317 318 315
316 315 314 313 311 311 311 312 313 313 313 312 312 310 310 313 312 314 316 315 313 307 310 305 310 312 314 313 316 318 317 317 318 317 317 317 317 317 317 316 314 315 315 312 311 309 307 305 304 300 304 304 306 303 303 302 302 301 300 302 306 303 300 302 301 298 297 299 302 305 302 302 306 309 310 310 311 311 312 312 311 311 312 313 314 316 318
315 315 314 313 312 311 311 312 312 314 313 312 310 309 310 314 315 313 315 317 315 307 309 308 307 310 313 313 317 317 318 318 318 317 316 316 316 316 316 316 317 313 313 312 306 307 305 302 302 305 306 306 304 301 304 303 303 301 301 302 305 303 303 302 299 298 297 303 306 307 307 307 308 309 311 312 312 312 311 311 311 311 311 313 314 315 315
315 314 313 312 311 311 311 312 312 313 313 310 310 313 315 315 314 315 317 318 316 314 313 313 314 312 306 308 317 316 317 318 317 317 316 316 316 316 316 315 313 310 310 309 308 308 306 303 304 305 304 306 304 300 301 297 297 295 300 303 304 306 306 306 306 305 306 306 308 308 307 306 309 311 312 312 313 312 311 312 312 311 312 312 313 313 314
315 314 314 313 311 311 311 312 313 313 313 313 315 316 314 315 317 317 317 317 316 317 312 307 303 307 313 314 313 315 316 317 317 317 316 315 315 315 315 316 314 313 312 309 309 304 305 306 306 307 309 310 303 302 298 296 296 299 303 304 305 306 306 307 307 306 306 309 309 309 309 310 311 312 312 312 313 313 312 311 313 311 312 313 313 313 312
315 314 313 313 311 311 312 313 313 314 312 313 318 313 311 306 317 318 314 317 316 316 310 312 308 310 311 317 316 314 315 317 316 315 315 315 314 314 313 316 313 314 309 310 309 305 306 304 305 306 310 310 305 301 299 297 296 298 302 304 305 305 306 306 308 308 309 309 310 311 310 310 311 312 311 311 312 312 312 313 313 314 313 312 313 314 313
314 313 313 313 312 312 312 313 313 313 312 314 316 315 313 314 317 317 315 315 316 318 315 308 306 308 307 310 314 318 316 315 315 316 316 318 313 316 314 314 311 313 312 307 307 307 305 306 306 306 306 307 305 300 299 299 294 298 304 304 306 306 307 307 308 309 309 309 309 308 307 308 309 308 308 310 311 313 313 312 313 313 314 313 312 312 314
314 313 313 313 313 313 313 313 313 313 313 313 312 311 312 311 311 313 315 316 319 313 310 312 305 306 305 307 312 315 315 315 313 314 311 316 311 314 310 315 312 311 312 309 304 304 305 306 306 304 305 307 304 300 300 298 300 304 305 306 306 307 307 308 308 308 308 309 310 306 304 305 307 309 310 311 311 312 313 313 313 313 313 312 311 311 311
314 313 313 313 313 313 313 312 313 311 311 313 314 315 319 313 315 311 314 318 315 311 312 310 304 303 304 309 307 312 316 310 309 311 307 313 313 312 310 310 311 308 309 305 305 306 306 307 305 305 306 303 302 300 292 300 303 303 305 306 307 307 308 308 308 307 307 308 308 308 308 309 310 310 311 310 310 312 313 313 313 312 311 311 311 311 311
313 313 312 313 313 313 313 312 314 316 317 316 316 319 319 312 310 312 317 320 312 309 309 307 307 304 301 303 303 308 315 312 308 310 307 310 314 310 311 307 308 305 305 310 306 305 304 304 307 302 299 302 299 292 297 302 302 303 305 306 307 307 306 305 306 308 308 309 308 308 308 309 309 307 307 308 308 309 310 310 311 311 310 310 311 311 312
313 313 313 312 312 311 313 315 315 315 315 315 315 318 316 315 314 317 319 320 317 308 307 306 306 304 304 300 300 307 315 309 309 309 310 311 309 311 310 308 301 303 307 305 302 304 303 308 303 298 301 295 293 298 303 305 304 304 306 306 307 307 306 306 307 308 308 308 308 308 308 308 307 307 308 308 308 309 309 308 308 309 309 309 310 311 312
313 313 312 311 312 317 316 316 316 315 314 316 318 319 318 319 321 321 320 320 319 319 313 308 304 304 305 304 306 309 310 303 308 307 309 307 305 309 307 305 300 306 304 303 303 302 304 309 303 298 296 293 296 304 306 306 307 306 306 308 308 309 308 309 309 309 307 307 306 306 307 306 306 308 307 307 307 309 307 306 307 306 306 307 309 310 310
312 310 313 316 316 313 312 314 314 317 319 318 319 317 317 317 313 314 314 313 313 315 310 309 307 306 306 305 303 311 308 304 307 305 305 307 305 303 305 303 302 304 297 300 302 308 305 302 300 297 299 305 304 303 305 305 309 311 310 309 309 309 309 309 309 306 304 302 302 303 303 303 303 305 305 305 306 306 307 308 308 309 309 308 309 310 311
308 311 313 312 314 311 312 314 317 315 318 319 318 314 311 311 311 307 306 306 309 306 308 307 306 307 307 305 306 311 307 305 304 305 302 309 305 299 303 298 303 302 295 297 300 307 299 299 297 296 297 302 302 305 306 306 308 310 311 310 310 309 309 309 309 306 303 302 302 303 303 301 300 300 303 303 304 306 308 307 306 307 307 308 309 310 310
312 313 314 314 312 312 316 314 313 317 318 313 311 310 307 309 306 300 306 301 301 307 307 303 308 308 310 307 305 305 313 306 302 301 304 304 305 300 303 301 302 299 293 294 298 305 297 291 295 293 295 302 304 307 306 307 307 309 310 310 310 309 310 308 307 308 306 305 306 305 306 305 304 302 302 302 302 302 302 303 305 306 307 307 308 308 308
308 309 310 311 310 310 310 311 316 316 313 310 308 304 304 299 306 307 305 301 301 305 310 308 307 307 308 307 309 305 310 311 307 308 308 302 307 305 299 296 303 296 293 293 300 301 299 295 291 290 297 307 306 306 307 308 308 309 310 311 311 310 308 307 308 308 307 305 305 305 305 305 305 305 305 304 305 305 305 305 305 305 305 305 305 307 310
307 308 309 309 309 309 313 315 313 311 308 306 301 291 295 300 305 306 307 300 302 306 307 308 305 307 307 310 309 310 309 312 311 309 305 299 304 301 298 299 299 294 290 298 303 299 297 290 290 292 302 305 303 305 307 306 308 308 309 310 309 308 306 305 305 305 306 305 304 304 304 304 304 304 304 303 303 303 304 304 304 306 305 307 309 310 310
309 308 308 308 311 311 311 305 307 305 293 292 290 291 297 294 301 303 303 307 311 307 306 312 310 311 311 313 309 310 308 312 307 305 303 300 304 303 299 295 296 290 296 302 299 295 291 289 290 297 306 304 302 304 306 308 308 308 308 309 308 307 305 304 303 303 304 304 303 303 303 303 303 303 304 304 303 303 304 304 304 305 306 307 307 308 308
310 311 311 310 309 307 307 294 305 303 293 290 291 290 295 297 299 302 301 305 309 307 310 307 307 307 305 310 307 307 307 308 308 307 303 304 302 299 297 292 295 300 302 297 296 291 293 297 299 304 303 302 303 304 305 307 306 305 304 304 305 305 305 304 304 303 302 303 303 303 304 303 303 304 304 304 304 303 303 303 305 305 306 306 306 306 307
311 304 297 301 296 300 295 290 299 295 292 294 294 298 298 298 300 302 301 306 308 306 308 309 309 307 306 310 311 310 308 304 307 302 299 302 299 298 296 294 299 298 295 293 295 294 294 293 302 303 301 301 304 305 306 305 305 304 303 302 303 303 303 303 302 302 302 302 302 303 302 303 303 303 303 303 304 305 304 303 304 304 304 304 305 305 307
306 295 294 291 288 291 292 289 288 291 299 299 299 303 304 305 304 306 307 309 308 309 308 310 309 309 306 310 306 304 308 306 302 302 303 302 297 294 300 301 300 295 292 292 289 289 292 298 306 306 304 304 305 305 305 304 305 304 302 301 301 302 302 302 302 302 302 302 303 303 302 303 303 303 303 303 304 304 304 304 305 304 305 304 304 304 305
304 302 293 292 289 292 298 291 294 300 302 303 305 305 305 306 307 307 308 310 310 310 311 312 311 310 307 306 305 305 306 306 302 304 302 297 296 297 301 297 292 292 289 288 290 293 297 302 304 304 304 304 305 304 303 302 302 302 303 303 302 301 302 302 302 302 302 303 303 302 302 303 303 303 303 303 304 304 305 305 305 305 305 304 304 305 306
293 295 300 291 289 293 293 299 302 303 304 304 305 306 306 307 308 310 311 310 312 311 311 311 308 308 307 309 307 303 304 304 301 301 303 300 298 296 291 292 292 294 295 293 293 299 301 303 305 302 303 304 304 303 301 301 301 302 302 302 301 301 301 302 302 302 302 302 302 302 303 303 303 303 303 303 303 304 305 305 305 305 305 305 305 305 305
306 296 294 292 299 299 300 302 302 301 304 306 303 304 305 307 309 310 313 313 313 311 313 310 309 307 302 306 304 301 299 302 295 295 299 297 293 288 290 288 290 289 296 297 298 301 302 305 303 303 303 302 303 302 302 302 301 301 300 301 301 302 302 302 302 302 303 303 303 303 303 304 304 304 304 304 303 303 305 304 304 304 304 304 303 304 305
299 297 300 296 297 298 300 302 300 299 303 302 303 305 307 308 309 312 314 312 313 312 310 309 308 303 302 301 294 296 296 300 301 295 296 294 295 294 293 289 291 291 295 299 300 303 303 301 303 302 302 302 302 302 301 301 302 302 301 301 302 302 302 302 302 303 303 303 303 303 304 305 304 304 303 303 303 303 303 303 303 302 303 303 303 303 304
302 299 299 305 300 298 300 296 297 299 300 302 303 304 306 307 308 310 314 313 312 310 308 305 304 301 295 293 291 290 293 300 297 296 295 296 297 294 292 291 295 297 300 303 303 303 303 303 303 302 302 302 302 302 302 302 302 302 302 302 302 302 303 303 303 303 303 303 304 303 304 304 304 304 305 305 303 302 302 302 303 302 302 302 303 302 303
295 295 299 302 304 303 302 303 303 302 302 304 303 305 307 305 310 314 314 314 311 307 305 306 302 297 291 291 295 300 298 295 294 295 293 295 297 294 294 296 300 302 302 302 301 301 302 303 304 304 303 302 302 302 303 303 303 302 302 302 302 302 302 303 303 303 303 304 304 304 304 304 305 305 305 304 303 302 300 300 302 303 303 303 303 303 302
Wind_Speed
20 20 20 21 21 21 22 22 22 23 22 5 4 2 2 3 2 1 4 6 2 3 3 1 2 2 1 3 1 2 2 1 2 5 7 4 3 3 6 4 1 4 1 1 3 3 4 4 3 1 1 2 3 5 7 2 1 2 2 2 2 2 2 1 1 2 2 2 2 4 2 2 5 6 4 2 6 4 6 5 7 6 5 4 3 5 2
19 20 20 21 21 21 22 22 22 21 17 4 5 1 3 1 1 1 1 4 1 1 3 3 2 1 1 3 2 2 3 6 8 6 6 4 5 3 4 2 5 4 3 3 3 3 3 4 3 3 1 3 2 3 7 2 0 2 2 1 2 3 2 2 1 2 2 2 2 4 3 2 5 3 4 3 3 0 3 5 1 5 6 2 7 9 3
19 19 20 21 21 22 22 22 21 21 19 6 2 2 1 2 0 1 4 4 1 1 1 3 2 2 3 2 4 4 3 3 2 4 6 4 3 1 3 2 4 3 2 4 2 7 4 4 3 0 1 1 4 3 5 8 3 2 2 3 1 2 1 1 2 4 6 6 5 1 2 6 5 1 4 4 3 3 5 6 4 4 3 1 5 2 3
19 19 20 20 22 22 22 22 22 21 17 8 2 2 0 1 2 3 2 5 4 4 1 2 2 4 2 4 2 1 2 1 2 1 4 4 3 5 2 1 1 4 2 5 7 8 9 4 2 2 2 3 2 2 7 4 6 5 5 6 1 3 2 1 2 1 3 3 1 1 1 4 2 6 6 7 2 3 2 2 5 8 5 7 2 1 8
18 19 20 20 22 22 23 22 22 22 16 6 1 2 2 2 2 1 1 2 4 3 2 2 1 2 1 2 2 4 3 2 2 3 2 6 3 3 7 5 2 2 2 3 5 5 3 5 3 5 3 2 3 5 4 5 10 11 2 5 1 2 3 5 5 6 5 3 1 3 1 2 4 7 8 8 7 5 4 6 5 7 6 5 3 6 11
18 19 20 20 21 22 23 24 23 22 16 2 2 2 3 1 1 1 1 0 1 2 4 5 3 3 1 2 1 2 2 5 2 2 3 1 4 1 2 9 6 1 2 2 3 4 4 4 4 3 0 3 3 2 3 6 8 7 4 5 2 2 3 3 1 4 1 2 3 3 3 3 4 6 8 11 8 5 4 3 3 6 7 5 8 12 10
18 19 21 21 20 22 23 24 25 23 17 2 1 3 2 2 2 1 1 1 0 1 2 2 3 6 3 3 3 1 4 6 2 1 3 4 6 4 3 6 7 5 1 1 3 1 2 4 1 2 4 4 4 4 3 1 8 7 3 5 2 1 3 2 3 1 2 2 3 0 6 3 5 9 8 8 9 6 3 4 3 5 5 4 8 11 6
18 19 20 21 20 21 22 24 26 25 20 2 3 5 0 2 1 2 2 3 3 2 1 1 1 4 4 3 2 1 1 3 1 1 3 2 3 2 6 3 5 7 6 3 4 2 4 4 4 1 2 1 3 1 0 4 6 6 4 3 2 1 1 4 1 1 4 2 4 2 4 4 6 7 10 11 9 4 4 2 2 3 2 4 8 9 5
18 19 19 21 19 19 20 22 25 26 20 3 5 4 5 1 1 1 2 2 3 2 3 2 2 3 2 3 2 3 2 5 2 4 1 3 2 2 3 3 2 3 5 7 5 2 2 3 1 1 1 3 3 3 1 1 3 6 4 3 4 4 1 1 2 2 2 5 9 8 1 5 6 10 11 12 9 6 5 3 3 2 1 3 6 6 6
16 18 19 20 19 18 19 19 22 24 20 3 2 4 2 1 0 1 1 3 3 2 0 1 1 2 1 1 3 2 3 3 2 5 1 2 2 1 1 1 1 2 4 5 4 2 4 5 4 2 3 3 3 4 4 2 3 2 1 1 2 2 1 2 3 0 2 6 6 8 4 2 1 6 7 6 1 0 4 1 1 2 5 6 6 1 3
16 17 18 18 18 18 18 18 19 20 12 6 4 3 3 3 1 1 1 3 1 2 0 2 1 1 2 1 3 1 3 1 2 3 1 2 3 2 1 3 0 2 1 3 3 2 4 3 2 1 2 1 1 1 1 3 1 2 2 0 1 0 1 2 1 2 2 7 8 5 3 3 1 3 3 3 3 2 4 3 2 2 3 2 3 3 3
16 17 18 18 17 17 16 17 16 16 12 3 1 1 2 2 1 0 1 4 1 0 1 2 1 1 3 2 1 3 3 2 1 1 8 0 1 1 2 3 1 1 2 2 2 2 4 3 2 2 2 4 4 6 8 7 6 3 1 2 2 1 2 2 1 2 2 5 5 4 8 4 4 2 4 4 1 1 3 4 1 1 3 3 3 3 9
16 17 16 17 18 16 16 15 16 15 14 5 1 4 3 1 2 1 1 3 3 1 2 2 1 1 3 5 6 4 1 1 2 2 4 4 3 2 1 2 1 3 4 4 3 3 2 1 2 1 2 3 1 3 12 10 9 5 4 3 0 1 2 3 2 2 1 2 2 3 3 3 3 4 10 8 2 5 3 3 3 1 3 3 3 5 8
17 18 17 16 17 17 17 16 15 15 14 8 1 2 2 2 2 1 1 3 2 0 1 4 3 5 5 4 5 4 2 5 2 2 4 2 2 2 1 2 2 4 2 1 4 2 3 1 2 1 1 2 1 0 4 1 7 9 8 6 2 4 4 0 1 1 2 1 2 3 4 2 6 1 8 9 6 8 6 3 2 1 3 4 7 8 10
16 18 17 16 17 17 16 17 16 16 16 11 2 2 2 3 0 1 1 1 4 2 1 3 3 1 1 1 0 4 3 1 3 4 2 2 1 1 1 3 3 3 1 3 1 3 2 2 2 2 2 3 5 2 2 2 3 3 5 4 4 1 1 1 2 1 1 1 2 2 2 6 4 3 7 6 5 6 7 5 2 5 6 4 9 12 15
15 17 16 15 16 17 17 17 17 15 15 12 1 2 2 3 1 1 1 1 3 4 2 0 2 2 3 2 1 3 3 2 1 1 1 2 2 2 2 2 2 0 2 5 2 2 1 1 2 1 2 1 2 1 2 4 1 1 2 3 5 6 6 3 2 1 2 2 3 2 3 2 2 10 12 12 7 6 4 5 3 6 6 4 9 13 16
14 16 16 16 16 17 17 17 16 14 12 13 5 2 1 4 3 2 2 1 2 3 1 1 3 3 3 3 2 3 1 2 1 2 1 0 2 4 6 4 1 4 4 3 3 1 2 4 2 2 2 1 1 2 1 1 2 1 5 4 7 5 4 2 2 2 1 0 2 2 1 2 7 12 14 15 10 1 2 4 2 6 10 5 8 14 16
13 15 17 16 16 17 17 16 16 14 13 13 5 1 2 2 4 2 1 1 3 2 1 4 2 1 2 1 3 1 2 2 2 1 1 1 2 2 4 5 4 3 1 2 1 3 3 2 2 2 2 1 1 2 1 0 1 2 3 4 3 2 2 3 2 1 3 1 0 1 2 1 8 12 15 14 8 2 5 2 4 10 12 8 7 12 15
12 13 15 16 16 17 17 16 15 16 14 13 6 3 2 1 5 2 2 2 2 3 1 0 1 2 2 2 4 3 1 1 1 2 1 1 2 1 2 0 2 2 5 3 1 3 1 2 1 1 1 2 1 2 1 1 2 0 2 0 2 2 0 1 1 1 1 2 2 1 2 3 8 14 10 10 6 3 2 5 7 11 13 10 8 12 13
12 14 15 15 16 16 16 15 16 15 15 13 7 1 2 2 3 5 3 2 1 3 1 1 1 1 2 0 2 2 2 1 2 1 2 0 1 1 2 1 1 1 1 0 2 1 0 2 2 1 1 1 2 0 2 2 1 2 2 1 1 2 2 1 2 1 1 1 1 0 2 4 12 18 4 13 5 5 6 11 12 8 10 9 7 10 11
12 14 16 15 16 16 16 15 15 15 15 14 7 2 1 1 2 5 3 1 1 4 2 0 1 1 1 2 2 2 3 3 2 0 1 1 1 2 0 1 2 2 1 2 1 2 0 2 2 1 2 1 2 2 2 2 2 2 2 1 2 1 1 1 1 2 2 0 1 1 4 6 10 9 6 7 3 7 8 7 10 8 7 6 4 6 6
12 15 15 15 16 16 15 15 14 14 14 14 9 2 1 1 2 4 2 2 1 2 2 1 1 2 1 2 2 1 2 2 2 2 5 3 1 1 1 3 2 0 1 1 2 2 1 2 1 1 2 3 1 1 1 1 2 2 1 2 1 3 2 2 1 1 2 3 3 3 2 3 4 4 3 3 6 6 7 7 8 8 7 8 3 1 2
12 15 14 14 15 15 15 15 14 13 13 14 9 2 1 5 5 7 3 1 0 0 0 1 1 1 2 2 1 1 1 1 4 3 4 4 2 0 1 1 2 1 1 1 1 2 2 2 2 1 2 1 1 3 0 2 1 1 1 3 2 2 2 0 2 2 1 3 3 2 1 4 6 3 2 4 7 6 7 7 7 6 5 6 2 4 4
11 11 14 14 14 15 15 14 13 12 12 11 8 3 2 2 5 6 0 2 1 3 2 3 2 3 2 4 3 3 2 2 2 1 1 0 3 1 0 1 2 2 1 1 1 0 2 2 2 1 0 2 2 1 2 2 1 1 1 3 1 1 1 1 2 2 2 2 1 5 2 3 7 8 5 4 7 8 7 8 8 8 8 5 3 6 7
11 11 13 14 14 14 14 14 12 11 10 11 9 2 4 2 2 4 2 1 1 1 3 1 3 2 4 3 3 1 4 1 1 1 1 1 1 2 3 3 0 1 4 2 2 3 1 2 2 1 1 2 2 1 2 1 2 1 1 2 1 3 2 2 2 2 2 3 3 6 2 4 5 8 9 10 10 9 7 7 7 8 8 6 4 6 9
11 11 12 14 14 14 14 13 12 10 8 9 7 3 2 2 4 2 1 2 1 0 4 2 3 4 3 0 5 3 5 4 2 7 8 4 3 5 10 5 4 3 4 1 0 2 3 3 2 2 1 3 2 1 1 2 2 2 2 2 2 3 4 1 2 2 2 3 2 9 2 4 2 10 8 7 7 7 7 7 8 8 9 9 8 5 6
11 10 11 12 14 14 13 12 10 10 7 8 4 1 1 1 2 4 3 2 1 2 1 3 1 2 4 7 4 4 3 3 5 8 8 9 9 7 7 6 6 3 2 3 3 2 3 2 0 2 2 2 0 2 1 2 0 0 1 2 1 3 1 2 2 3 2 1 3 7 2 1 5 7 8 8 8 8 7 7 8 7 6 7 6 5 5
11 10 11 13 14 14 13 10 10 10 10 10 3 1 2 1 2 2 1 1 3 1 2 3 3 2 2 3 5 5 4 3 6 9 8 8 8 7 7 5 4 3 2 0 2 2 2 2 3 1 1 2 2 2 1 2 1 1 1 2 2 1 1 2 2 2 0 2 1 1 1 4 3 4 6 5 6 7 8 8 7 5 4 3 4 4 4
11 11 11 13 14 14 12 10 10 10 11 7 1 2 1 1 1 0 2 0 1 1 2 2 0 1 1 3 5 5 6 5 7 8 8 8 9 8 7 6 5 2 3 4 4 3 2 2 1 1 2 1 2 2 2 2 2 2 2 2 0 1 1 2 2 3 3 2 1 1 2 3 5 7 6 4 4 6 6 7 7 5 3 2 4 4 2
9 9 9 11 13 13 12 10 9 10 11 3 2 1 1 1 2 1 2 2 1 1 1 3 4 2 2 1 4 4 5 7 9 10 10 8 7 6 4 4 4 3 3 2 1 3 2 2 1 1 1 1 0 2 1 1 2 1 2 1 1 1 2 2 2 3 1 0 3 4 5 6 5 6 4 2 5 6 5 5 7 7 4 2 3 5 4
8 7 8 10 13 13 12 11 10 10 9 2 1 1 1 2 1 2 3 2 1 0 2 1 3 1 2 1 2 5 4 6 8 8 8 6 4 3 1 2 3 2 2 2 2 2 2 2 2 2 1 3 1 1 2 2 2 1 5 2 1 1 1 1 2 4 5 5 4 4 4 3 3 2 3 4 6 5 5 4 4 4 6 5 3 2 6
8 6 7 9 13 12 12 11 10 8 4 2 1 1 2 1 1 3 4 3 1 1 1 3 2 2 2 1 2 1 2 3 2 3 3 2 4 4 6 5 3 3 3 3 2 2 1 1 1 2 1 3 2 2 1 1 2 1 5 2 2 2 1 1 1 1 2 3 4 5 2 1 3 4 3 6 6 5 3 4 3 4 5 4 3 3 3
8 7 6 10 12 12 12 10 9 6 3 5 7 8 10 11 11 8 1 1 1 2 0 1 2 2 2 2 2 1 2 2 4 2 2 3 2 1 2 2 1 3 3 2 2 1 1 0 1 2 2 1 1 2 2 3 2 3 3 2 2 2 3 2 2 1 0 1 2 2 1 2 4 4 3 3 3 4 4 4 3 3 2 2 3 4 4
7 7 7 10 12 11 11 11 8 5 4 3 2 2 2 1 2 2 1 1 3 0 1 2 3 2 2 1 3 3 1 2 1 1 2 2 1 0 2 1 2 1 4 2 2 2 2 1 1 2 2 2 1 1 2 3 2 3 3 3 2 4 4 3 2 3 2 2 2 1 1 2 1 1 1 5 6 5 4 5 5 4 4 3 2 2 3
7 7 10 10 11 11 9 6 2 1 1 1 1 1 2 6 3 2 2 1 1 2 2 2 1 3 3 2 3 3 1 2 2 1 0 2 2 1 1 1 1 1 2 1 1 2 1 1 1 3 1 1 1 1 4 3 6 5 4 4 5 5 5 4 3 2 2 1 1 2 1 1 1 5 5 5 6 6 6 7 7 7 6 5 4 3 3
11 11 11 11 10 5 2 3 1 1 1 1 2 2 3 1 1 2 2 2 2 3 1 1 1 2 2 4 4 3 2 2 2 1 1 1 2 2 1 1 1 2 1 1 0 0 1 1 2 1 1 1 3 4 3 5 9 8 8 7 7 7 5 5 5 4 3 2 1 1 1 2 4 3 3 4 5 5 6 7 7 7 7 7 7 5 3
11 12 11 6 3 2 2 2 2 2 2 2 3 4 2 3 1 0 2 0 2 2 1 3 2 3 2 1 1 1 3 5 1 1 1 2 2 1 1 1 1 2 2 1 1 2 2 1 1 1 2 2 2 3 3 5 9 10 8 7 6 4 4 4 3 3 5 4 2 2 1 2 2 2 2 4 4 3 5 7 6 6 7 7 5 6 5
10 7 2 1 1 1 1 1 1 2 4 4 2 1 1 2 1 2 2 2 2 2 2 1 1 2 1 2 3 2 3 1 1 3 2 0 3 2 1 1 2 1 2 1 1 2 3 1 1 2 4 4 3 3 4 5 5 5 7 7 7 6 5 5 6 4 3 3 2 1 1 1 2 1 2 3 3 4 4 2 2 2 3 4 4 4 4
1 1 1 1 1 1 1 2 3 5 2 1 1 1 1 2 1 1 2 3 2 1 1 1 1 2 2 2 2 1 2 2 4 0 3 2 2 2 2 2 3 2 0 1 2 2 3 2 1 1 6 3 2 5 6 5 4 4 6 6 6 6 5 5 5 4 2 1 1 2 1 1 2 3 1 2 2 2 2 2 3 3 3 3 3 4 4
1 2 1 1 1 2 2 1 3 1 1 0 2 1 1 1 1 1 0 0 0 0 0 2 1 1 2 1 5 5 1 3 4 4 3 2 1 1 2 0 2 2 1 2 1 2 2 1 1 1 6 4 5 3 6 8 8 7 6 6 7 6 6 5 5 2 2 2 3 3 3 2 2 2 3 3 3 4 4 4 4 3 3 3 3 4 4
2 0 0 1 1 2 2 3 1 1 0 1 1 3 1 1 1 1 1 2 1 1 1 1 2 2 2 0 2 3 1 1 2 2 1 3 1 1 2 1 1 2 2 2 2 2 2 1 1 2 4 2 2 4 7 7 8 7 6 6 6 6 6 3 3 2 3 3 2 1 1 2 3 4 4 4 4 4 5 5 5 5 5 5 4 4 3
1 2 2 1 2 2 2 0 2 0 1 1 1 0 1 1 1 1 1 1 1 1 3 3 2 2 2 4 2 2 2 1 1 1 1 3 1 1 2 2 1 2 2 2 3 2 1 2 1 3 5 4 2 3 7 8 7 8 7 6 6 5 5 4 4 2 1 1 1 1 1 1 2 1 2 2 3 4 4 5 5 6 6 6 4 3 3
3 3 2 1 1 1 1 1 2 2 1 1 2 1 0 0 1 0 1 1 1 2 1 1 2 2 2 0 3 2 1 2 1 1 1 2 1 0 2 1 1 2 1 3 3 2 2 2 2 6 2 1 3 6 7 7 7 6 6 5 4 4 5 5 5 5 3 3 3 3 2 3 2 2 2 3 4 5 5 4 5 5 5 5 5 5 4
2 3 1 1 2 1 1 0 0 0 1 0 0 1 2 2 2 2 2 1 2 2 3 4 4 4 3 1 1 3 2 2 1 2 2 1 1 2 2 2 3 2 2 2 2 2 3 3 7 3 1 0 3 7 8 6 7 6 6 5 5 5 5 5 4 4 3 3 2 1 1 1 2 3 3 3 4 6 6 6 6 6 6 6 5 5 5
1 2 2 1 1 1 0 0 3 1 1 2 2 1 2 1 1 2 0 1 1 1 2 0 2 3 2 2 1 1 1 2 1 2 3 3 2 0 2 1 3 2 2 2 2 2 1 6 5 4 4 4 6 7 6 6 7 8 7 6 5 5 5 4 3 3 2 1 1 1 1 1 2 3 4 5 5 5 5 7 7 6 6 6 6 6 5
1 1 1 2 1 1 0 0 1 0 2 3 3 3 2 1 1 1 1 0 1 1 2 3 2 2 2 0 2 1 2 2 4 2 2 1 2 3 2 2 1 2 1 2 2 4 6 5 2 4 5 7 8 8 6 6 5 6 8 7 6 6 5 4 4 2 1 1 1 1 0 1 2 3 4 5 6 7 7 6 6 6 6 6 6 6 6
3 2 1 1 1 0 0 1 3 2 1 3 2 3 2 1 1 2 0 2 2 1 2 1 0 0 1 2 3 1 1 1 3 2 1 3 3 2 1 2 3 3 3 3 5 5 5 4 3 2 5 8 8 7 7 6 6 7 6 6 7 6 5 4 3 2 2 1 1 2 2 3 4 4 4 5 6 6 6 7 7 6 6 6 7 6 6
1 1 1 1 2 1 2 2 1 2 3 3 0 0 0 1 1 2 3 3 1 2 3 3 2 2 2 1 1 1 1 1 2 2 1 1 2 1 1 2 3 2 3 4 5 3 3 2 1 4 5 8 9 9 7 7 7 8 7 7 6 6 5 4 3 2 2 2 3 3 4 4 4 4 5 6 7 6 6 6 6 7 7 7 7 7 7
3 1 0 1 1 2 1 1 1 3 1 0 1 1 2 2 3 2 2 2 3 3 2 3 1 1 1 2 2 2 3 2 2 1 1 0 3 2 3 3 4 3 5 6 6 3 3 1 2 5 7 8 7 7 7 8 8 8 7 7 6 6 5 4 4 3 3 3 3 3 4 4 4 4 5 5 6 6 7 8 8 8 8 9 9 9 8
0 0 1 1 1 2 0 1 1 4 1 1 2 2 2 2 3 2 3 3 2 3 3 2 1 1 1 1 1 1 1 3 3 1 3 5 5 3 2 4 4 4 2 3 4 3 2 2 5 7 7 8 8 8 8 7 7 6 6 6 5 5 5 4 3 3 3 2 3 3 4 3 4 4 5 6 7 8 8 8 8 8 9 9 10 10 10
2 0 1 1 2 0 3 3 2 1 1 1 1 1 2 2 1 0 3 2 4 4 2 3 2 1 1 0 0 2 1 2 3 5 4 4 4 4 4 5 4 4 4 1 0 1 2 4 5 6 7 7 7 7 7 7 7 7 6 6 5 5 4 3 3 2 2 1 2 3 3 3 3 4 4 4 6 8 8 8 7 8 9 9 9 9 10
0 0 1 1 2 2 3 1 1 4 6 5 3 2 2 2 2 1 2 3 4 4 4 3 2 2 1 3 3 1 1 1 2 2 3 3 3 3 4 5 5 3 3 2 2 2 2 4 4 7 8 9 9 7 7 7 7 6 6 5 5 5 4 3 2 1 1 1 2 1 2 2 3 3 4 5 6 7 9 9 9 9 9 8 8 9 10
Wind_Direction
347 346 347 347 347 347 345 346 347 351 348 354 10 262 5 42 87 351 13 338 11 59 77 260 44 54 38 266 337 295 45 13 306 10 358 7 4 37 45 5 5 44 358 95 66 25 78 355 46 51 29 63 307 320 326 287 224 232 96 230 152 187 18 288 296 300 248 181 142 110 98 207 135 77 41 202 211 233 226 230 153 181 139 192 158 236 105
347 347 348 348 347 347 346 347 349 352 6 343 298 38 82 121 329 35 74 3 311 56 81 57 42 36 31 49 50 330 53 27 18 25 19 21 357 36 21 121 46 50 356 72 55 320 127 26 17 90 18 77 316 343 329 313 325 297 90 259 117 246 96 318 35 130 85 97 161 140 140 107 44 11 10 335 302 196 74 84 122 200 175 237 187 226 147
348 349 350 349 347 347 347 348 348 353 356 359 308 38 155 130 190 277 304 5 335 73 142 140 128 70 77 36 42 10 61 29 39 33 33 1 15 258 53 32 312 47 350 76 101 40 12 120 27 343 323 324 334 309 359 337 28 337 357 304 255 80 53 270 243 170 170 168 168 128 350 1 327 49 351 39 336 118 171 188 164 228 130 210 217 194 80
349 350 351 350 348 347 348 348 348 351 354 349 275 117 208 40 146 328 12 8 49 76 351 34 113 119 146 72 15 337 71 86 16 18 74 34 19 48 310 7 332 45 31 58 37 35 28 40 82 20 23 345 317 321 323 351 9 9 62 27 240 102 136 80 313 320 99 72 332 54 253 301 12 344 17 0 2 325 301 63 176 215 149 196 186 80 151
350 352 353 352 350 348 348 349 348 350 354 348 347 55 45 123 69 4 96 319 61 87 40 44 358 122 181 83 325 37 351 278 35 360 88 30 17 50 39 4 7 8 32 73 63 18 46 39 88 26 345 305 288 298 300 295 6 344 348 359 144 96 85 23 35 58 83 117 22 350 242 21 44 32 22 19 11 350 293 205 218 114 132 227 128 167 156
352 354 356 355 352 350 349 349 349 348 357 340 252 60 344 90 151 166 333 277 46 49 50 16 86 75 207 93 248 8 28 43 55 353 73 235 16 3 41 30 49 302 48 94 90 353 53 35 32 323 128 292 341 3 22 26 350 345 40 351 46 83 93 41 360 102 43 18 24 47 106 64 58 45 34 27 5 10 327 338 346 189 212 251 157 173 187
353 356 357 358 355 352 352 350 348 350 353 106 294 124 31 41 113 88 309 155 111 13 320 330 81 80 55 105 54 75 62 79 44 350 352 29 22 6 95 20 11 23 236 125 98 2 132 60 27 27 352 33 328 29 346 65 2 6 21 39 43 113 60 359 336 274 198 5 360 117 146 167 47 31 30 27 31 27 360 337 2 344 2 1 161 170 179
355 358 358 359 357 354 355 353 351 349 346 278 39 48 294 53 70 139 20 60 98 355 45 78 85 81 331 91 19 72 331 109 182 56 19 82 39 348 82 88 37 32 51 55 84 67 72 82 62 317 330 114 15 43 317 318 338 10 24 350 29 295 75 343 204 235 174 24 352 351 119 136 60 30 21 21 17 50 60 60 38 319 37 29 145 151 146
356 359 359 0 358 358 358 358 358 350 348 80 38 55 19 26 12 352 161 97 7 355 26 56 48 104 22 84 161 107 69 86 65 79 297 28 48 14 113 121 121 12 54 68 85 198 212 212 257 351 276 3 11 344 76 197 334 346 20 3 355 1 94 301 348 260 191 27 353 358 297 129 70 28 12 10 12 17 17 8 38 303 17 128 140 168 183
355 360 1 0 360 1 359 3 5 359 341 82 24 38 341 325 263 244 278 100 342 29 102 79 199 80 241 120 154 147 177 149 209 99 17 58 39 321 267 164 17 50 48 49 1 317 216 249 276 304 289 296 292 252 271 268 305 330 40 306 10 17 106 43 13 312 322 350 357 339 305 180 188 25 350 332 17 274 311 260 353 305 163 169 202 25 36
355 0 1 360 2 2 4 5 11 12 8 50 25 32 346 358 358 29 295 101 82 44 71 45 55 104 128 296 112 352 105 160 289 117 145 3 42 28 199 176 136 71 65 2 17 309 267 277 326 149 119 56 157 10 144 91 45 286 320 90 94 346 56 89 284 8 322 342 335 328 275 247 115 50 308 268 8 26 345 10 37 73 230 291 332 327 170
355 1 1 1 1 3 5 6 11 21 26 25 293 35 3 295 272 260 65 94 79 344 84 83 40 154 138 131 117 116 127 175 177 246 115 90 42 145 89 94 141 51 27 7 354 115 119 128 115 138 88 51 88 86 67 57 51 58 319 288 118 90 77 83 260 329 322 335 296 219 224 212 68 2 342 315 287 108 63 117 104 345 300 305 259 212 173
357 359 2 0 2 3 5 7 7 17 20 12 333 16 358 313 290 349 79 101 98 334 112 76 8 60 95 119 99 80 59 325 48 62 71 115 103 71 339 41 346 337 358 334 15 121 148 68 13 2 1 344 236 76 48 32 23 31 57 25 340 144 127 142 81 12 222 239 73 215 170 60 178 114 39 358 312 12 221 165 197 214 244 243 213 168 172
357 358 1 0 1 3 5 7 4 10 16 11 336 342 325 323 318 319 8 91 85 15 308 107 71 94 87 69 94 106 111 68 21 347 102 6 84 90 35 240 338 318 302 172 56 81 117 81 97 163 58 6 69 73 24 18 35 22 22 16 357 119 120 198 92 12 298 10 238 282 349 227 90 105 11 6 1 340 342 330 114 346 283 205 152 152 155
355 357 358 359 360 2 4 5 4 5 12 4 322 285 326 348 270 290 212 32 115 107 274 131 171 128 126 75 122 111 71 18 126 80 345 283 196 31 345 337 338 348 195 232 62 35 85 130 117 139 102 185 200 174 358 33 347 48 29 28 36 349 296 133 236 107 316 265 258 254 219 225 91 11 324 337 310 295 281 262 116 13 335 246 156 157 155
352 355 356 357 358 1 3 3 3 2 10 0 24 349 272 341 251 234 311 125 131 122 96 67 143 147 107 74 349 112 127 109 66 348 41 6 330 330 179 319 333 262 71 70 45 71 19 134 128 162 114 73 41 276 162 338 62 71 63 12 58 57 65 110 354 120 196 216 251 245 243 78 32 334 331 318 319 286 294 245 66 5 347 268 172 158 163
351 355 355 355 356 358 1 1 359 0 10 15 1 321 1 20 352 312 311 325 52 69 72 95 125 126 121 110 167 84 298 127 176 178 170 105 359 315 305 339 183 39 47 68 12 92 80 76 56 81 106 288 222 30 29 26 360 17 0 3 21 37 16 335 118 99 49 94 240 251 350 2 358 334 327 321 321 290 200 259 134 16 346 305 200 170 168
350 354 352 353 354 355 358 358 358 356 6 7 349 275 310 349 353 270 303 59 103 97 116 185 165 147 68 123 113 111 120 111 86 68 42 331 291 1 344 349 348 71 305 71 346 84 64 48 109 115 94 58 335 246 133 12 37 5 353 348 343 9 31 13 55 39 105 288 262 270 168 102 346 324 318 316 318 249 252 267 28 343 322 307 239 188 175
350 352 354 354 353 353 355 356 356 355 1 5 336 204 219 308 339 319 161 86 60 105 39 19 291 51 96 67 61 114 44 15 33 138 83 168 96 339 287 43 307 4 12 106 60 56 66 77 261 324 132 134 231 67 117 221 45 168 273 244 188 130 325 136 233 46 343 28 280 282 5 61 324 319 320 312 276 242 316 4 317 306 300 292 245 206 188
347 354 354 352 352 352 354 353 354 354 356 9 3 301 303 326 10 9 351 78 49 89 5 37 222 106 205 314 119 107 173 124 21 124 159 174 108 219 222 156 169 244 138 175 73 313 87 116 81 205 143 104 76 182 142 71 273 5 17 339 336 11 292 46 54 105 184 203 283 270 229 61 7 325 305 29 14 12 310 309 305 293 301 283 241 210 192
351 357 351 350 350 350 352 351 353 353 355 2 7 325 40 114 355 19 355 292 95 101 87 59 223 298 178 65 14 84 108 69 181 7 136 38 13 314 190 185 39 3 49 356 84 121 159 128 170 42 21 349 93 241 125 119 139 108 321 52 56 333 288 103 121 325 336 162 280 36 13 327 350 359 25 354 349 303 304 300 302 317 323 316 243 214 196
355 353 348 347 348 349 349 350 350 352 353 356 354 269 256 9 14 356 351 286 35 48 75 345 313 292 317 305 270 249 14 34 288 134 145 131 58 334 54 65 84 44 120 163 111 131 185 78 128 179 150 114 210 24 350 221 170 88 147 263 155 3 358 332 358 123 314 19 33 37 25 338 356 356 10 320 322 326 315 305 289 310 335 336 311 352 42
350 349 346 345 346 346 347 347 347 350 351 354 4 7 17 322 337 341 286 154 146 188 270 343 236 220 196 130 120 253 227 350 130 116 144 116 120 141 15 82 104 95 98 289 354 54 70 155 82 48 111 18 56 127 130 348 67 132 123 26 49 65 344 23 259 124 96 75 11 9 58 17 10 20 328 341 359 3 352 347 338 343 338 321 321 73 55
342 351 344 342 343 344 344 344 345 346 348 352 359 335 335 314 319 337 27 46 96 105 57 27 167 103 22 18 9 21 96 49 351 311 229 203 114 130 172 327 112 148 56 48 324 68 128 62 75 256 119 105 244 190 204 198 124 95 168 147 128 78 344 280 332 20 271 141 91 22 22 25 23 13 16 34 26 16 12 11 1 350 355 9 49 99 81
338 346 344 340 341 341 342 342 343 344 345 347 346 314 245 269 14 352 351 178 79 126 128 54 30 345 328 301 262 289 46 306 291 257 161 120 135 134 102 96 313 20 131 128 190 111 77 119 159 195 153 97 279 105 32 282 146 201 236 100 222 141 349 300 12 306 290 63 45 349 238 149 44 26 9 7 5 7 25 34 16 6 8 15 43 96 94
334 340 344 338 339 339 340 340 340 343 338 347 348 347 359 2 331 299 226 61 79 161 123 105 78 33 325 52 33 346 323 356 39 55 46 48 36 97 131 141 84 37 88 108 234 83 97 78 72 59 185 130 285 330 144 20 40 69 317 58 11 342 296 284 11 309 339 137 83 357 130 189 46 34 28 11 357 345 8 38 39 21 12 9 15 34 101
330 337 338 339 337 336 338 336 336 341 349 347 338 308 288 301 344 8 40 338 181 85 78 129 319 351 26 57 356 340 2 352 65 70 62 51 78 90 96 102 104 102 80 78 40 94 72 78 52 94 19 74 34 47 39 154 223 206 163 85 345 240 159 61 261 251 264 2 15 352 339 306 6 16 17 3 357 348 357 26 39 39 23 4 358 13 17
328 334 337 337 336 336 336 333 332 340 350 343 325 245 231 353 28 16 339 301 353 138 135 134 147 84 296 70 33 25 28 50 76 81 76 71 68 70 76 78 77 75 35 72 132 75 53 143 93 63 72 131 202 122 37 70 167 171 191 69 4 358 62 261 254 272 22 104 47 47 295 281 293 342 353 358 357 358 13 14 12 30 57 26 8 352 13
327 332 336 335 333 333 334 329 328 333 342 340 234 172 177 203 199 15 25 253 266 75 75 63 337 350 115 42 9 39 30 57 79 85 85 73 63 58 65 59 68 94 93 73 75 74 60 62 350 72 76 39 282 131 200 190 209 233 113 96 57 27 300 275 338 332 286 246 224 314 272 302 322 330 341 355 356 337 353 13 11 1 15 67 84 52 10
330 338 332 333 330 331 332 327 326 330 336 319 182 129 113 118 180 138 35 18 3 288 158 138 143 88 278 329 46 44 66 65 79 75 71 72 62 59 37 71 63 37 56 61 70 105 81 102 108 142 13 260 254 97 199 114 233 119 121 249 292 258 240 248 253 244 322 74 287 283 275 284 300 304 318 1 356 347 334 341 2 9 9 10 104 107 84
324 331 327 327 326 328 326 323 323 329 340 300 205 121 63 89 18 143 20 12 332 218 108 44 90 309 75 56 53 51 78 86 79 77 66 61 66 69 61 101 65 333 106 67 59 85 187 120 133 95 112 27 11 163 132 171 210 224 180 212 251 248 231 228 218 242 267 282 294 289 267 274 308 278 127 24 356 354 347 330 325 4 12 10 16 128 135
316 319 310 320 324 323 323 319 321 334 326 323 16 59 72 51 354 338 343 332 272 232 24 106 112 132 66 96 43 338 41 65 80 70 55 356 71 35 50 33 72 4 52 87 88 151 73 56 70 102 141 10 9 102 161 196 226 184 148 183 183 213 222 202 170 180 246 271 282 265 195 96 43 19 340 346 335 341 334 340 325 323 347 4 19 24 68
311 309 315 317 319 320 318 314 314 310 298 303 293 279 275 277 284 283 309 278 254 60 13 59 93 126 161 104 323 169 347 128 67 18 84 351 84 349 81 29 73 85 39 142 64 83 73 75 111 143 71 296 118 128 202 218 216 130 152 173 165 159 154 136 116 86 36 6 308 12 32 343 356 5 352 326 353 359 3 13 358 318 300 291 40 60 69
310 309 314 315 314 321 319 314 308 290 249 265 133 70 61 351 326 55 164 92 86 105 6 107 127 143 102 27 191 141 311 184 126 348 123 55 33 87 87 95 22 120 27 7 116 149 130 233 164 101 168 78 16 226 246 222 175 173 179 185 171 160 156 140 137 118 80 61 36 27 355 323 295 252 42 46 40 31 33 41 30 48 51 40 14 4 34
312 314 313 312 314 316 319 326 344 165 78 46 86 102 25 37 16 310 282 300 184 5 40 62 33 124 137 147 229 153 65 225 170 53 100 88 316 86 167 127 316 239 86 337 125 20 129 93 94 201 168 47 264 234 243 181 175 184 183 177 173 164 163 155 128 135 138 106 108 90 80 190 108 54 39 33 37 28 35 40 38 35 44 40 26 354 319
315 313 311 312 315 303 277 226 347 324 99 42 53 16 61 86 349 29 20 38 15 150 88 84 246 167 161 167 191 135 178 83 49 94 47 119 132 39 44 98 168 61 338 316 150 187 205 82 240 226 86 239 229 214 219 182 175 182 184 179 172 181 180 166 144 144 143 138 108 102 90 67 60 46 33 39 35 32 32 37 34 36 38 30 21 5 344
309 312 312 301 271 198 50 26 345 360 34 327 313 330 279 248 214 189 15 59 64 360 118 163 173 170 205 145 58 102 202 178 175 143 151 191 141 60 93 135 59 92 186 173 178 209 100 50 283 213 199 219 239 229 219 179 176 175 185 180 170 169 154 160 159 150 156 162 140 80 62 38 70 30 14 20 23 19 27 33 26 24 23 18 10 9 352
313 313 291 172 209 115 117 121 47 343 295 304 313 234 22 17 134 7 2 48 339 329 38 305 205 95 31 210 162 95 220 135 340 175 136 49 156 123 1 53 76 213 218 238 79 63 118 104 286 271 263 247 267 259 227 197 194 174 166 168 170 175 169 161 161 170 170 178 194 150 129 54 38 66 1 3 358 2 12 6 1 12 9 11 11 354 355
68 224 165 37 131 143 127 89 349 331 289 131 273 214 79 1 121 104 25 318 304 154 49 278 182 139 153 109 70 66 311 151 159 193 187 137 251 161 189 223 145 221 82 253 146 215 235 197 187 269 262 251 268 225 192 192 188 184 167 168 170 173 167 169 182 190 193 223 173 171 179 21 346 347 338 322 324 323 308 323 338 353 349 347 358 0 354
250 213 160 111 77 70 22 38 345 341 140 236 4 300 92 10 326 107 303 339 350 24 214 193 107 186 243 184 159 171 188 211 175 188 155 119 322 296 96 182 101 235 237 252 113 186 241 253 131 305 275 238 227 187 165 175 182 186 181 176 179 176 177 177 187 204 188 166 174 182 197 227 261 291 309 307 309 312 320 322 329 324 324 327 327 338 349
21 186 181 98 56 340 333 322 306 132 284 198 124 26 52 117 47 79 160 86 266 187 214 14 141 184 157 314 235 185 108 24 27 27 129 122 54 131 174 157 106 245 247 230 131 178 183 200 184 231 252 214 225 171 164 164 177 170 175 178 177 171 176 182 174 165 181 174 190 245 334 318 308 303 314 313 312 304 303 306 303 308 312 312 316 320 313
319 340 2 316 290 285 281 86 34 47 67 46 113 319 305 299 308 241 233 244 128 180 163 192 185 190 176 191 155 96 126 304 69 135 119 139 158 229 105 106 149 250 237 69 109 148 202 241 237 250 243 229 223 172 164 167 171 168 162 165 161 158 163 167 146 112 105 157 124 103 109 69 30 15 343 331 318 309 305 303 301 302 304 309 295 275 276
222 222 214 238 159 50 2 135 20 45 65 346 40 36 318 132 134 217 171 224 38 258 89 9 26 54 48 152 100 1 71 177 212 118 208 136 121 34 139 136 172 217 157 135 200 160 197 226 240 245 215 166 173 177 181 165 155 146 139 145 138 138 152 152 141 124 117 91 74 54 38 15 8 2 338 318 314 311 302 298 297 299 299 301 300 290 285
177 203 186 11 96 51 276 150 217 227 56 41 177 174 198 203 179 170 229 200 182 197 186 190 173 208 158 164 153 134 145 120 69 92 67 52 193 158 178 199 204 73 97 187 204 219 241 248 245 246 74 132 161 180 174 155 145 133 125 121 123 125 122 117 125 136 121 113 102 87 54 9 353 343 332 316 310 306 303 295 299 302 300 293 289 285 287
149 16 22 59 25 316 50 220 342 119 230 183 204 205 174 119 135 196 101 64 229 18 129 258 148 199 142 125 97 54 260 154 65 231 168 166 142 44 215 197 116 161 205 230 209 236 269 258 241 229 209 198 185 171 160 153 155 151 140 135 138 138 141 139 134 130 127 129 84 13 26 37 351 342 334 327 321 307 295 295 299 300 297 297 291 285 276
102 150 87 91 317 309 71 223 13 222 230 162 202 202 181 210 153 160 99 108 174 148 172 166 169 183 137 113 259 166 143 139 167 179 119 164 211 195 126 65 160 204 202 233 227 229 229 239 204 222 197 181 166 161 154 150 141 134 143 152 156 149 143 144 146 154 167 175 156 191 239 298 298 301 310 316 309 309 306 300 293 286 288 285 279 283 290
72 6 86 108 112 236 358 221 215 219 74 193 232 203 227 28 261 298 276 195 215 129 85 61 58 270 221 160 180 183 176 211 197 120 172 187 192 96 332 225 205 195 211 222 228 240 245 245 234 197 160 159 151 150 152 149 152 157 153 142 148 146 147 150 158 174 155 166 212 234 252 263 277 279 285 288 296 296 298 298 298 294 283 277 283 283 283
140 255 133 154 233 179 196 226 8 297 229 241 270 161 320 7 304 241 189 196 181 153 171 158 186 169 208 99 280 245 128 261 206 164 249 127 85 129 128 222 235 222 215 233 237 214 242 253 200 156 164 155 150 148 151 151 156 156 149 147 149 152 160 164 166 167 179 218 243 257 270 271 271 273 279 288 295 294 290 291 289 288 281 274 270 268 268
118 124 154 200 182 180 237 44 14 276 266 110 196 181 201 201 233 236 136 154 174 191 179 209 179 184 210 112 196 172 194 175 204 187 90 74 213 192 192 224 197 228 213 213 246 227 221 131 113 139 145 146 150 150 152 154 153 152 154 155 162 163 164 167 167 181 211 234 248 259 272 279 281 282 293 300 302 307 316 312 303 296 291 287 281 277 271
99 99 67 124 226 223 155 21 273 280 267 168 185 189 187 217 254 268 158 170 172 137 116 53 20 254 43 187 184 307 232 191 175 135 194 202 204 183 206 246 199 215 225 184 220 225 160 136 140 140 145 146 149 147 146 147 149 150 152 157 157 161 166 167 183 214 228 248 258 270 278 286 298 304 310 314 315 315 313 312 310 307 303 296 290 282 277
347 313 270 302 259 34 146 216 210 238 258 208 192 159 174 233 255 89 164 143 139 147 163 199 158 162 171 142 152 203 209 130 180 194 210 205 167 186 205 233 226 206 232 224 221 46 138 155 154 143 143 145 150 148 144 146 151 155 160 161 162 163 165 192 221 245 255 252 258 270 291 312 312 302 294 293 315 322 319 319 319 316 309 302 293 286 280
81 211 221 160 218 234 233 6 305 255 263 274 265 232 179 250 220 143 135 164 160 210 215 140 172 162 164 206 210 125 31 252 227 157 206 215 171 182 197 208 241 238 226 194 184 162 158 157 158 153 153 152 152 150 146 147 151 157 162 163 164 173 184 191 198 215 239 229 235 274 310 316 314 302 291 299 318 327 330 325 325 318 308 299 290 283 280